period_start,C,m1,H,J0,J1,J2,J3,J4,J5,JA,JB,JC,JD,JJ,JK,JN,#
2016-05-28 00:02:25,0.00,0.45,0.00,19.41,24.42,27.36,14.76,44.55,1021.51,2049.98,3393.99,3036.02,3445.03,599.69,605.98,47.13,0000 0000 0000 0000 000000
2016-05-28 00:07:26,0.00,0.45,0.00,19.42,24.42,27.36,14.78,44.56,1021.50,2049.99,3393.99,3036.05,3445.12,600.32,606.59,47.18,0000 0000 0000 0000 000000
2016-05-28 00:12:27,0.00,0.45,0.00,19.44,24.42,27.37,14.81,44.78,1021.50,2049.99,3393.98,3036.01,3445.05,599.50,605.73,47.23,0000 0000 0000 0000 000000
2016-05-28 00:17:29,0.11,0.45,0.00,19.43,24.43,27.36,14.79,44.31,1021.50,2049.99,3392.21,3035.35,3444.32,600.17,606.30,47.28,0000 0000 0000 0000 000000
2016-05-28 00:22:31,0.06,0.46,0.00,19.47,24.44,27.36,14.73,44.34,1021.50,2049.99,3389.07,3033.99,3442.51,600.09,606.25,47.33,0000 0000 0000 0000 000000
2016-05-28 00:27:32,0.00,0.46,0.00,19.48,24.45,27.39,14.78,44.43,1021.45,2049.99,3389.00,3033.91,3442.31,600.15,606.29,47.38,0000 0000 0000 0000 000000
2016-05-28 00:32:33,0.01,0.46,0.00,19.52,24.45,27.40,14.84,45.18,1021.28,2049.99,3388.96,3033.69,3442.10,600.40,606.32,47.43,0000 0000 0000 0000 000000
2016-05-28 00:37:34,0.01,0.46,0.00,19.53,24.45,27.40,14.77,45.05,1021.14,2049.99,3388.82,3033.15,3442.02,599.80,605.58,47.48,0000 0000 0000 0000 000000
2016-05-28 00:42:36,-0.01,0.46,0.00,19.54,24.47,27.40,14.77,44.45,1021.06,2049.99,3388.95,3033.32,3442.03,599.89,605.68,47.53,0000 0000 0000 0000 000000
2016-05-28 00:47:37,-0.01,0.46,0.00,19.56,24.47,27.39,14.74,44.27,1021.08,2049.99,3388.97,3033.50,3442.04,599.90,605.56,47.58,0000 0000 0000 0000 000000
2016-05-28 00:52:38,0.02,0.46,0.00,19.58,24.48,27.40,14.76,44.44,1021.09,2049.99,3388.80,3033.26,3442.01,600.07,605.59,47.63,0000 0000 0000 0000 000000
2016-05-28 00:57:40,0.00,0.46,0.00,19.57,24.50,27.42,14.76,44.48,1021.06,2049.99,3388.38,3033.04,3442.00,600.09,605.77,47.68,0000 0000 0000 0000 000000
2016-05-28 01:02:41,0.05,0.46,0.00,19.52,24.50,27.43,14.79,44.53,1021.03,2049.99,3387.79,3032.71,3441.55,600.23,605.99,47.74,0000 0000 0000 0000 000000
2016-05-28 01:07:42,0.01,0.46,0.00,19.49,24.50,27.44,14.78,44.83,1021.02,2049.99,3386.98,3032.07,3441.00,600.64,606.40,47.79,0000 0000 0000 0000 000000
2016-05-28 01:12:43,0.01,0.46,0.00,19.50,24.50,27.47,14.70,45.07,1021.01,2049.99,3386.41,3032.00,3440.97,599.60,605.39,47.84,0000 0000 0000 0000 000000
2016-05-28 01:17:45,0.00,0.46,0.00,19.23,24.50,27.56,14.79,44.64,1021.01,2049.99,3386.05,3032.00,3440.97,599.86,606.11,47.89,0000 0000 0000 0000 000000
2016-05-28 01:22:46,0.00,0.46,0.00,19.05,24.47,27.52,14.73,44.42,1021.01,2049.99,3386.05,3032.01,3440.97,599.89,606.59,47.94,0000 0000 0000 0000 000000
2016-05-28 01:27:47,0.00,0.46,0.00,18.88,24.45,27.50,14.78,44.52,1021.01,2049.99,3386.05,3032.03,3440.99,599.97,607.03,47.99,0000 0000 0000 0000 000000
2016-05-28 01:32:48,-0.00,0.46,0.00,18.76,24.43,27.49,14.80,44.56,1021.00,2049.99,3386.06,3032.10,3440.99,599.92,607.17,48.04,0000 0000 0000 0000 000000
2016-05-28 01:37:49,0.00,0.46,0.00,18.73,24.42,27.46,14.79,44.51,1021.00,2050.02,3386.07,3032.25,3440.99,599.89,607.21,48.09,0000 0000 0000 0000 000000
2016-05-28 01:42:50,-0.00,0.46,0.00,18.66,24.40,27.46,14.91,44.78,1020.95,2050.04,3386.09,3032.33,3441.00,601.04,608.37,48.14,0000 0000 0000 0000 000000
2016-05-28 01:47:51,0.00,0.46,0.00,18.77,24.40,27.48,14.88,45.67,1020.69,2050.02,3386.05,3032.15,3441.00,599.84,607.09,48.19,0000 0000 0000 0000 000000
2016-05-28 01:52:53,0.00,0.46,0.00,18.88,24.40,27.48,14.83,44.57,1020.54,2050.03,3386.13,3032.17,3441.00,599.81,606.61,48.24,0000 0000 0000 0000 000000
2016-05-28 01:57:54,-0.00,0.46,0.00,19.06,24.41,27.50,14.86,44.58,1020.55,2050.02,3386.12,3032.17,3441.00,600.13,606.52,48.29,0000 0000 0000 0000 000000
2016-05-28 02:02:56,0.00,0.46,0.00,19.18,24.42,27.53,14.83,44.84,1020.59,2050.01,3386.05,3032.03,3440.99,600.60,606.81,48.34,0000 0000 0000 0000 000000
2016-05-28 02:07:57,0.00,0.46,0.00,19.19,24.45,27.57,14.71,45.03,1020.65,2050.00,3385.99,3032.00,3440.91,599.05,605.19,48.39,0000 0000 0000 0000 000000
2016-05-28 02:12:59,0.01,0.46,0.00,19.31,24.47,27.59,14.75,44.60,1020.77,2050.01,3385.97,3032.00,3440.61,599.76,605.77,48.44,0000 0000 0000 0000 000000
2016-05-28 02:18:00,0.00,0.46,0.00,19.38,24.50,27.63,14.73,44.48,1020.92,2050.00,3385.89,3031.97,3440.06,599.80,605.77,48.49,0000 0000 0000 0000 000000
2016-05-28 02:23:01,0.01,0.46,0.00,19.30,24.53,27.64,14.78,44.73,1021.00,2050.00,3385.60,3031.84,3440.00,599.87,606.01,48.54,0000 0000 0000 0000 000000
2016-05-28 02:28:02,0.02,0.46,0.00,19.24,24.57,27.69,14.81,44.52,1021.01,2049.99,3385.11,3031.21,3440.00,599.93,606.16,48.59,0000 0000 0000 0000 000000
2016-05-28 02:33:03,-0.01,0.46,0.00,19.21,24.60,27.75,14.73,45.09,1021.01,2049.92,3385.00,3031.02,3439.80,600.18,606.63,48.64,0000 0000 0000 0000 000000
2016-05-28 02:38:05,-0.02,0.46,0.00,19.28,24.64,27.79,14.78,44.84,1021.01,2049.63,3384.98,3030.99,3439.09,599.77,606.00,48.69,0000 0000 0000 0000 000000
2016-05-28 02:43:06,-0.03,0.46,0.00,19.44,24.68,27.83,14.81,44.57,1021.00,2049.18,3384.88,3030.92,3439.01,599.94,605.80,48.75,0000 0000 0000 0000 000000
2016-05-28 02:48:07,0.02,0.46,0.00,19.59,24.72,27.88,14.76,44.73,1021.00,2049.03,3384.26,3030.31,3438.97,600.46,606.05,48.80,0000 0000 0000 0000 000000
2016-05-28 02:53:09,0.01,0.46,0.00,19.71,24.77,27.95,14.75,44.83,1020.90,2049.00,3384.01,3030.01,3438.33,599.42,604.63,48.85,0000 0000 0000 0000 000000
2016-05-28 02:58:10,0.00,0.46,0.00,19.81,24.81,28.02,14.69,44.34,1020.73,2049.00,3383.97,3029.99,3438.01,599.88,604.84,48.90,0000 0000 0000 0000 000000
2016-05-28 03:03:11,0.02,0.46,0.00,20.03,24.87,28.04,14.77,44.28,1020.72,2048.96,3383.46,3029.58,3437.92,600.25,604.70,48.95,0000 0000 0000 0000 000000
2016-05-28 03:08:12,-0.01,0.47,0.00,20.22,24.92,28.09,14.69,44.13,1020.68,2048.70,3383.02,3029.03,3437.22,599.94,604.08,49.00,0000 0000 0000 0000 000000
2016-05-28 03:13:14,-0.04,0.46,0.00,20.34,24.97,28.16,14.75,44.80,1020.62,2048.13,3382.82,3028.91,3436.99,600.46,604.37,49.05,0000 0000 0000 0000 000000
2016-05-28 03:18:15,0.04,0.46,0.00,20.50,25.03,28.23,14.65,45.32,1020.73,2048.00,3382.06,3028.14,3436.32,599.77,603.30,49.10,0000 0000 0000 0000 000000
2016-05-28 03:23:16,0.00,0.46,0.00,20.73,25.09,28.33,14.67,44.48,1020.72,2047.96,3381.97,3027.99,3435.99,600.00,603.07,49.15,0000 0000 0000 0000 000000
2016-05-28 03:28:18,-0.01,0.46,0.00,20.87,25.16,28.43,14.66,44.17,1020.74,2047.41,3381.29,3027.33,3435.29,600.21,602.93,49.20,0000 0000 0000 0000 000000
2016-05-28 03:33:19,-0.01,0.46,0.00,20.96,25.23,28.52,14.70,44.32,1020.62,2047.01,3380.98,3026.98,3434.92,600.13,602.67,49.25,0000 0000 0000 0000 000000
2016-05-28 03:38:20,0.05,0.47,0.00,21.09,25.31,28.60,14.75,44.27,1020.57,2047.00,3380.29,3026.28,3434.12,600.46,602.69,49.30,0000 0000 0000 0000 000000
2016-05-28 03:43:21,0.01,0.47,0.00,21.28,25.39,28.69,14.61,44.37,1020.54,2046.98,3379.93,3025.93,3433.65,600.24,602.15,49.35,0000 0000 0000 0000 000000
2016-05-28 03:48:22,-0.01,0.47,0.00,21.43,25.48,28.78,14.62,44.30,1020.53,2046.58,3379.10,3025.10,3433.00,600.12,601.70,49.40,0000 0000 0000 0000 000000
2016-05-28 03:53:24,0.00,0.47,0.00,21.48,25.56,28.87,14.62,44.83,1020.53,2046.03,3378.73,3024.75,3432.25,599.86,601.23,49.45,0000 0000 0000 0000 000000
2016-05-28 03:58:25,0.03,0.47,0.00,21.53,25.64,28.95,14.61,45.23,1020.52,2045.98,3378.03,3024.03,3431.60,599.93,601.28,49.50,0000 0000 0000 0000 000000
2016-05-28 04:03:26,-0.03,0.47,0.00,21.70,25.72,29.05,14.58,44.61,1020.53,2045.47,3377.38,3023.53,3430.99,599.71,600.72,49.55,0000 0000 0000 0000 000000
2016-05-28 04:08:28,0.00,0.47,0.00,21.80,25.81,29.13,14.60,44.12,1020.53,2045.02,3376.97,3022.99,3430.22,599.94,600.73,49.60,0000 0000 0000 0000 000000
2016-05-28 04:13:29,0.04,0.47,0.00,21.84,25.89,29.23,14.65,44.05,1020.52,2044.97,3376.16,3022.27,3429.65,599.94,600.62,49.66,0000 0000 0000 0000 000000
2016-05-28 04:18:30,-0.04,0.47,0.00,21.86,25.98,29.32,14.54,43.99,1020.53,2044.44,3375.74,3021.87,3429.00,599.90,600.60,49.71,0000 0000 0000 0000 000000
2016-05-28 04:23:31,0.02,0.47,0.00,21.94,26.06,29.40,14.67,44.39,1020.52,2044.01,3375.03,3021.08,3428.21,600.64,601.22,49.76,0000 0000 0000 0000 000000
2016-05-28 04:28:32,0.03,0.47,0.00,22.12,26.14,29.49,14.64,44.51,1020.52,2043.99,3374.57,3020.72,3427.75,600.12,600.43,49.81,0000 0000 0000 0000 000000
2016-05-28 04:33:33,-0.05,0.47,0.00,22.27,26.23,29.57,14.53,45.21,1020.52,2043.42,3373.92,3020.03,3427.01,600.15,599.90,49.86,0000 0000 0000 0000 000000
2016-05-28 04:38:35,0.03,0.47,0.00,22.41,26.31,29.66,14.55,44.90,1020.46,2043.02,3373.14,3019.52,3426.31,599.69,599.20,49.91,0000 0000 0000 0000 000000
2016-05-28 04:43:36,0.01,0.47,0.00,22.50,26.39,29.74,14.53,44.45,1020.17,2042.94,3372.86,3018.99,3425.77,600.03,599.15,49.96,0000 0000 0000 0000 000000
2016-05-28 04:48:37,-0.03,0.47,0.00,22.63,26.48,29.83,14.60,44.80,1020.10,2042.19,3372.11,3018.30,3425.03,600.47,599.33,50.01,0000 0000 0000 0000 000000
2016-05-28 04:53:38,0.02,0.47,0.00,22.74,26.56,29.90,14.48,44.43,1020.06,2042.00,3371.65,3017.89,3424.33,600.00,598.58,50.06,0000 0000 0000 0000 000000
2016-05-28 04:58:39,0.01,0.47,0.00,22.77,26.64,29.99,14.52,44.10,1020.05,2041.85,3371.01,3017.09,3423.87,599.82,598.28,50.11,0000 0000 0000 0000 000000
2016-05-28 05:03:41,-0.03,0.47,0.00,22.87,26.73,30.06,14.54,44.07,1020.04,2041.12,3370.44,3016.78,3423.07,599.86,598.16,50.16,0000 0000 0000 0000 000000
2016-05-28 05:08:42,0.02,0.47,0.00,22.94,26.81,30.14,14.49,44.14,1020.04,2041.00,3369.99,3016.04,3422.42,600.02,598.24,50.21,0000 0000 0000 0000 000000
2016-05-28 05:13:43,0.01,0.47,0.00,23.01,26.89,30.20,14.47,44.23,1020.04,2040.85,3369.34,3015.78,3421.97,599.68,597.73,50.26,0000 0000 0000 0000 000000
2016-05-28 05:18:44,-0.03,0.47,0.00,23.09,26.96,30.29,14.55,44.19,1020.04,2040.16,3368.95,3015.04,3421.21,600.64,598.56,50.31,0000 0000 0000 0000 000000
2016-05-28 05:23:46,0.02,0.47,0.00,23.18,27.04,30.36,14.48,44.35,1020.04,2040.00,3368.20,3014.71,3420.81,599.99,597.66,50.36,0000 0000 0000 0000 000000
2016-05-28 05:28:47,0.02,0.47,0.00,23.24,27.12,30.42,14.44,44.38,1020.04,2039.88,3367.72,3014.02,3420.03,599.75,597.33,50.41,0000 0000 0000 0000 000000
2016-05-28 05:33:48,-0.03,0.47,0.00,23.31,27.19,30.50,14.53,44.10,1020.05,2039.15,3367.00,3013.35,3419.31,600.12,597.55,50.46,0000 0000 0000 0000 000000
2016-05-28 05:38:50,0.02,0.47,0.00,23.29,27.27,30.58,14.44,43.91,1020.05,2039.00,3366.27,3012.92,3418.78,599.46,596.92,50.51,0000 0000 0000 0000 000000
2016-05-28 05:43:51,0.02,0.47,0.00,23.37,27.34,30.64,14.47,43.81,1020.29,2038.88,3365.98,3012.16,3418.04,599.64,597.19,50.56,0000 0000 0000 0000 000000
2016-05-28 05:48:52,-0.05,0.47,0.00,23.37,27.41,30.70,14.52,43.99,1020.47,2038.17,3365.28,3011.96,3417.61,600.45,597.97,50.62,0000 0000 0000 0000 000000
2016-05-28 05:53:53,0.02,0.47,0.00,23.48,27.49,30.78,14.52,43.96,1020.49,2038.00,3364.93,3011.18,3416.99,599.90,597.24,50.67,0000 0000 0000 0000 000000
2016-05-28 05:58:55,0.02,0.47,0.00,23.56,27.56,30.86,14.51,43.73,1020.51,2037.88,3364.16,3010.86,3416.27,600.32,597.51,50.72,0000 0000 0000 0000 000000
2016-05-28 06:03:56,-0.04,0.47,0.00,23.61,27.63,30.93,14.54,43.77,1020.48,2037.17,3363.78,3010.08,3415.82,599.98,597.11,50.77,0000 0000 0000 0000 000000
2016-05-28 06:08:58,0.01,0.47,0.00,23.66,27.70,31.00,14.55,44.15,1020.45,2037.00,3363.04,3009.86,3415.05,600.09,597.08,50.82,0000 0000 0000 0000 000000
2016-05-28 06:13:59,0.03,0.47,0.00,23.72,27.77,31.07,14.47,44.10,1020.31,2036.95,3362.67,3009.08,3414.48,599.73,596.49,50.87,0000 0000 0000 0000 000000
2016-05-28 06:19:01,-0.04,0.47,0.00,23.74,27.83,31.15,14.55,44.06,1020.42,2036.36,3362.03,3008.96,3414.01,600.39,597.15,50.92,0000 0000 0000 0000 000000
2016-05-28 06:24:02,0.01,0.47,0.00,23.85,27.90,31.21,14.53,44.00,1020.35,2036.01,3361.75,3008.13,3413.34,600.14,596.69,50.97,0000 0000 0000 0000 000000
2016-05-28 06:29:03,0.01,0.47,0.00,23.86,27.97,31.29,14.44,43.74,1020.23,2035.98,3361.05,3007.99,3412.99,600.09,596.48,51.02,0000 0000 0000 0000 000000
2016-05-28 06:34:05,0.01,0.47,0.00,24.00,28.04,31.33,14.47,43.72,1020.20,2035.71,3360.79,3007.36,3412.30,600.09,596.15,51.07,0000 0000 0000 0000 000000
2016-05-28 06:39:06,-0.04,0.47,0.00,24.22,28.11,31.40,14.44,44.02,1020.19,2035.05,3360.06,3007.00,3411.81,600.09,595.83,51.12,0000 0000 0000 0000 000000
2016-05-28 06:44:08,0.04,0.47,0.00,24.29,28.18,31.46,14.49,44.93,1020.05,2034.99,3359.67,3006.42,3411.06,599.96,595.32,51.17,0000 0000 0000 0000 000000
2016-05-28 06:49:09,0.00,0.47,0.00,24.33,28.24,31.53,14.45,44.74,1020.06,2034.89,3359.03,3006.00,3410.74,600.14,595.50,51.22,0000 0000 0000 0000 000000
2016-05-28 06:54:10,-0.03,0.47,0.00,24.43,28.31,31.60,14.48,44.81,1020.04,2034.21,3358.63,3005.57,3410.04,599.88,595.00,51.27,0000 0000 0000 0000 000000
2016-05-28 06:59:11,0.01,0.47,0.00,24.50,28.38,31.64,14.49,44.71,1020.04,2034.00,3358.04,3005.02,3409.52,600.16,595.11,51.32,0000 0000 0000 0000 000000
2016-05-28 07:04:12,0.03,0.47,0.00,24.52,28.44,31.70,14.52,44.35,1020.04,2033.96,3357.54,3004.53,3409.00,600.29,595.19,51.37,0000 0000 0000 0000 000000
2016-05-28 07:09:13,-0.03,0.47,0.00,24.54,28.50,31.75,14.41,44.18,1020.04,2033.48,3357.01,3004.01,3408.32,599.89,594.88,51.42,0000 0000 0000 0000 000000
2016-05-28 07:14:14,-0.02,0.47,0.00,24.57,28.56,31.79,14.41,44.02,1020.04,2033.06,3356.79,3003.92,3408.00,599.95,594.85,51.47,0000 0000 0000 0000 000000
2016-05-28 07:19:15,0.04,0.47,0.00,24.56,28.62,31.84,14.52,44.03,1020.04,2033.00,3356.06,3003.16,3407.54,600.18,595.17,51.52,0000 0000 0000 0000 000000
2016-05-28 07:24:17,0.01,0.47,0.00,23.98,28.66,32.09,14.53,43.97,1020.05,2032.97,3355.67,3002.99,3407.01,599.98,596.02,51.58,0000 0000 0000 0000 000000
2016-05-28 07:29:18,-0.00,0.47,0.00,24.02,28.70,32.46,14.60,43.83,1020.05,2032.73,3355.05,3002.63,3406.78,600.32,596.27,51.63,0000 0000 0000 0000 000000
2016-05-28 07:34:20,-0.01,0.47,0.00,23.82,28.72,32.18,14.52,43.77,1020.04,2032.22,3354.57,3002.02,3406.01,600.11,596.46,51.68,0000 0000 0000 0000 000000
2016-05-28 07:39:21,-0.00,0.47,0.00,23.52,28.72,31.85,14.56,44.02,1020.04,2032.05,3354.05,3001.94,3405.91,600.26,597.36,51.73,0000 0000 0000 0000 000000
2016-05-28 07:44:22,0.00,0.47,0.00,23.39,28.72,31.52,14.58,44.04,1020.04,2032.02,3354.00,3001.90,3405.66,600.37,597.63,51.78,0000 0000 0000 0000 000000
2016-05-28 07:49:23,0.01,0.47,0.00,23.38,28.70,31.33,14.56,44.15,1020.03,2032.01,3353.98,3001.61,3405.21,599.99,597.21,51.83,0000 0000 0000 0000 000000
2016-05-28 07:54:25,-0.00,0.47,0.00,23.33,28.68,31.11,14.50,43.95,1019.98,2032.02,3353.98,3001.65,3405.20,599.87,597.21,51.88,0000 0000 0000 0000 000000
2016-05-28 07:59:26,0.00,0.47,0.00,23.28,28.65,30.96,14.53,44.05,1019.66,2032.03,3353.98,3001.64,3405.21,600.01,597.27,51.93,0000 0000 0000 0000 000000
2016-05-28 08:04:27,-0.00,0.47,0.00,23.36,28.61,30.97,14.58,44.02,1019.57,2032.08,3353.98,3001.77,3405.29,600.24,597.17,51.98,0000 0000 0000 0000 000000
2016-05-28 08:09:29,0.01,0.47,0.00,23.64,28.59,31.46,14.52,44.22,1019.56,2032.33,3353.99,3001.94,3405.64,600.19,596.65,52.03,0000 0000 0000 0000 000000
2016-05-28 08:14:30,0.02,0.47,0.00,23.78,28.56,31.71,14.52,44.16,1019.56,2032.53,3353.99,3001.92,3405.66,600.33,596.51,52.08,0000 0000 0000 0000 000000
2016-05-28 08:19:31,0.00,0.48,0.00,24.05,28.55,31.60,14.43,44.02,1019.56,2032.70,3353.99,3001.91,3405.66,599.68,595.36,52.13,0000 0000 0000 0000 000000
2016-05-28 08:24:33,0.02,0.48,0.00,24.51,28.55,31.42,14.46,44.07,1019.55,2032.77,3353.99,3001.78,3405.36,600.34,594.94,52.18,0000 0000 0000 0000 000000
2016-05-28 08:29:34,-0.01,0.48,0.00,24.74,28.57,31.29,14.39,44.63,1019.56,2032.49,3353.91,3001.19,3405.04,599.97,594.22,52.23,0000 0000 0000 0000 000000
2016-05-28 08:34:35,-0.01,0.48,0.00,24.82,28.58,31.28,14.36,44.58,1019.57,2032.19,3353.50,3001.01,3405.00,600.12,594.22,52.28,0000 0000 0000 0000 000000
2016-05-28 08:39:36,-0.01,0.48,0.00,24.89,28.60,31.35,14.41,44.44,1019.56,2032.16,3353.21,3001.00,3405.00,600.16,594.14,52.33,0000 0000 0000 0000 000000
2016-05-28 08:44:37,-0.00,0.48,0.00,24.95,28.62,31.40,14.38,44.35,1019.56,2032.08,3353.02,3001.00,3404.98,600.03,593.86,52.38,0000 0000 0000 0000 000000
2016-05-28 08:49:38,-0.00,0.48,0.00,24.98,28.65,31.47,14.37,44.34,1019.56,2032.02,3353.00,3000.98,3404.76,600.04,593.78,52.43,0000 0000 0000 0000 000000
2016-05-28 08:54:39,0.01,0.48,0.00,24.99,28.67,31.49,14.38,44.40,1019.57,2032.00,3352.99,3000.81,3404.14,599.97,593.80,52.49,0000 0000 0000 0000 000000
2016-05-28 08:59:41,0.01,0.48,0.00,25.02,28.70,31.52,14.33,43.87,1019.57,2032.00,3352.90,3000.39,3404.01,599.91,593.57,52.54,0000 0000 0000 0000 000000
2016-05-28 09:04:42,0.01,0.48,0.00,24.94,28.72,31.54,14.39,44.17,1019.56,2032.00,3352.33,3000.06,3404.00,600.10,593.82,52.59,0000 0000 0000 0000 000000
2016-05-28 09:09:43,0.00,0.48,0.00,24.73,28.73,31.59,14.43,44.50,1019.55,2032.00,3352.03,3000.00,3403.98,599.64,593.87,52.64,0000 0000 0000 0000 000000
2016-05-28 09:14:44,0.00,0.48,0.00,24.72,28.75,31.65,14.38,43.98,1019.52,2032.00,3352.01,3000.00,3403.94,599.91,594.20,52.69,0000 0000 0000 0000 000000
2016-05-28 09:19:46,0.00,0.48,0.00,25.01,28.77,31.62,14.42,43.76,1019.50,2031.99,3352.00,3000.00,3403.66,600.24,593.82,52.74,0000 0000 0000 0000 000000
2016-05-28 09:24:47,0.00,0.48,0.00,25.10,28.80,31.64,14.34,43.58,1019.54,2031.98,3351.99,2999.98,3403.08,600.02,593.45,52.79,0000 0000 0000 0000 000000
2016-05-28 09:29:48,0.00,0.48,0.00,25.10,28.82,31.66,14.31,43.51,1019.54,2031.96,3351.86,2999.81,3403.00,600.05,593.69,52.84,0000 0000 0000 0000 000000
2016-05-28 09:34:49,-0.02,0.48,0.00,25.10,28.85,31.72,14.38,44.11,1019.54,2031.58,3351.15,2999.16,3402.98,600.15,593.75,52.89,0000 0000 0000 0000 000000
2016-05-28 09:39:51,-0.00,0.48,0.00,25.12,28.87,31.75,14.30,44.43,1019.54,2031.23,3351.00,2999.00,3402.66,599.80,593.28,52.94,0000 0000 0000 0000 000000
2016-05-28 09:44:52,-0.01,0.48,0.00,25.10,28.89,31.80,14.35,44.49,1019.55,2031.06,3350.93,2998.98,3402.10,600.03,593.50,52.99,0000 0000 0000 0000 000000
2016-05-28 09:49:53,0.00,0.48,0.00,25.08,28.90,31.79,14.32,44.46,1019.54,2031.01,3350.45,2998.92,3402.00,599.69,593.30,53.04,0000 0000 0000 0000 000000
2016-05-28 09:54:55,0.01,0.48,0.00,25.09,28.92,31.81,14.38,44.63,1019.53,2031.01,3350.15,2998.73,3402.00,600.01,593.55,53.09,0000 0000 0000 0000 000000
2016-05-28 09:59:56,0.01,0.48,0.00,25.10,28.92,31.81,14.39,44.68,1019.50,2031.00,3350.02,2998.36,3401.98,600.13,593.68,53.14,0000 0000 0000 0000 000000
2016-05-28 10:04:57,0.00,0.48,0.00,25.06,28.93,31.80,14.33,44.63,1019.35,2031.00,3350.00,2998.06,3401.89,599.83,593.26,53.19,0000 0000 0000 0000 000000
2016-05-28 10:09:58,0.01,0.48,0.00,25.05,28.95,31.82,14.45,44.64,1019.24,2031.00,3349.99,2998.01,3401.60,600.13,593.63,53.24,0000 0000 0000 0000 000000
2016-05-28 10:15:00,0.00,0.48,0.00,25.07,28.95,31.82,14.41,44.83,1019.28,2031.00,3349.96,2998.00,3401.19,600.20,593.67,53.29,0000 0000 0000 0000 000000
2016-05-28 10:20:01,0.00,0.48,0.00,25.08,28.95,31.81,14.39,44.59,1019.28,2030.99,3349.92,2998.00,3401.18,600.23,593.67,53.34,0000 0000 0000 0000 000000
2016-05-28 10:25:02,0.00,0.48,0.00,25.05,28.95,31.81,14.39,44.77,1019.18,2030.99,3349.64,2998.00,3401.04,599.69,593.17,53.39,0000 0000 0000 0000 000000
2016-05-28 10:30:03,0.01,0.48,0.00,25.06,28.94,31.79,14.34,44.53,1019.11,2030.99,3349.21,2998.00,3401.02,600.11,593.45,53.45,0000 0000 0000 0000 000000
2016-05-28 10:35:04,0.00,0.48,0.00,25.07,28.93,31.77,14.30,44.65,1019.07,2030.99,3349.06,2998.00,3401.01,599.81,593.12,53.50,0000 0000 0000 0000 000000
2016-05-28 10:40:06,0.00,0.48,0.00,25.04,28.92,31.77,14.36,44.55,1019.07,2030.99,3349.03,2997.99,3401.00,599.51,592.91,53.55,0000 0000 0000 0000 000000
2016-05-28 10:45:07,0.00,0.48,0.00,25.02,28.92,31.73,14.38,44.78,1019.06,2030.99,3349.00,2997.98,3401.00,599.90,593.49,53.60,0000 0000 0000 0000 000000
2016-05-28 10:50:08,0.00,0.48,0.00,25.04,28.92,31.74,14.34,44.26,1019.07,2030.99,3349.00,2997.98,3401.00,599.57,592.97,53.65,0000 0000 0000 0000 000000
2016-05-28 10:55:10,0.00,0.48,0.00,25.03,28.91,31.72,14.39,44.42,1019.07,2030.99,3349.00,2997.96,3401.00,600.35,593.79,53.70,0000 0000 0000 0000 000000
2016-05-28 11:00:11,0.00,0.48,0.00,25.01,28.90,31.72,14.37,44.28,1019.06,2030.99,3348.99,2997.93,3401.00,600.11,593.38,53.75,0000 0000 0000 0000 000000
2016-05-28 11:05:12,0.00,0.48,0.00,25.03,28.90,31.69,14.31,43.87,1019.06,2030.99,3348.99,2997.95,3400.99,600.01,593.48,53.80,0000 0000 0000 0000 000000
2016-05-28 11:10:14,0.00,0.48,0.00,25.04,28.90,31.70,14.37,44.69,1019.06,2030.99,3348.98,2997.89,3400.99,599.73,593.11,53.85,0000 0000 0000 0000 000000
2016-05-28 11:15:15,0.00,0.48,0.00,25.03,28.88,31.70,14.39,44.63,1019.06,2030.99,3348.97,2997.83,3400.98,599.80,593.26,53.90,0000 0000 0000 0000 000000
2016-05-28 11:20:16,0.00,0.48,0.00,25.01,28.87,31.69,14.41,44.75,1019.06,2030.99,3348.97,2997.91,3400.99,600.19,593.50,53.95,0000 0000 0000 0000 000000
2016-05-28 11:25:17,0.00,0.48,0.00,25.00,28.87,31.67,14.33,44.48,1019.05,2030.99,3348.96,2997.89,3400.99,599.68,593.09,54.00,0000 0000 0000 0000 000000
2016-05-28 11:30:19,0.00,0.48,0.00,25.02,28.86,31.66,14.36,44.38,1018.94,2030.99,3348.97,2997.94,3400.99,599.76,593.05,54.05,0000 0000 0000 0000 000000
2016-05-28 11:35:20,-0.00,0.48,0.00,25.01,28.85,31.64,14.35,44.23,1018.78,2030.99,3348.90,2997.89,3400.98,599.95,593.22,54.10,0000 0000 0000 0000 000000
2016-05-28 11:40:21,-0.00,0.48,0.00,25.01,28.85,31.64,14.40,44.03,1018.67,2031.00,3348.96,2997.96,3400.99,599.89,593.17,54.15,0000 0000 0000 0000 000000
2016-05-28 11:45:22,0.00,0.48,0.00,25.04,28.85,31.62,14.39,43.87,1018.62,2031.00,3348.96,2997.96,3400.99,600.31,593.48,54.20,0000 0000 0000 0000 000000
2016-05-28 11:50:24,0.00,0.48,0.00,25.02,28.85,31.59,14.32,44.58,1018.62,2031.01,3348.86,2997.95,3400.99,599.97,593.12,54.25,0000 0000 0000 0000 000000
2016-05-28 11:55:25,0.00,0.48,0.00,25.02,28.83,31.61,14.42,44.49,1018.60,2031.02,3348.77,2997.95,3400.98,600.07,593.23,54.30,0000 0000 0000 0000 000000
2016-05-28 12:00:26,-0.00,0.48,0.00,25.06,28.82,31.60,14.31,44.06,1018.59,2031.04,3348.82,2997.97,3400.99,599.77,592.84,54.36,0000 0000 0000 0000 000000
2016-05-28 12:05:27,-0.00,0.48,0.00,25.06,28.82,31.62,14.38,44.08,1018.58,2031.02,3348.86,2997.96,3400.98,600.14,593.09,54.41,0000 0000 0000 0000 000000
2016-05-28 12:10:29,0.01,0.48,0.00,25.02,28.82,31.63,14.30,43.82,1018.59,2031.06,3348.61,2997.95,3400.99,599.73,592.86,54.46,0000 0000 0000 0000 000000
2016-05-28 12:15:30,-0.00,0.48,0.00,25.01,28.82,31.59,14.36,44.04,1018.57,2031.06,3348.49,2997.96,3400.99,600.06,593.22,54.51,0000 0000 0000 0000 000000
2016-05-28 12:20:31,0.00,0.48,0.00,25.03,28.82,31.60,14.35,43.95,1018.57,2031.07,3348.23,2997.93,3400.99,599.87,593.03,54.56,0000 0000 0000 0000 000000
2016-05-28 12:25:32,-0.00,0.48,0.00,25.02,28.82,31.59,14.43,43.92,1018.57,2031.06,3348.09,2997.90,3400.98,600.21,593.26,54.61,0000 0000 0000 0000 000000
2016-05-28 12:30:33,0.00,0.48,0.00,25.00,28.82,31.62,14.37,44.26,1018.57,2031.07,3348.09,2997.88,3400.96,600.23,593.44,54.66,0000 0000 0000 0000 000000
2016-05-28 12:35:34,0.00,0.48,0.00,24.98,28.81,31.61,14.39,44.79,1018.57,2031.09,3348.00,2997.69,3400.95,600.10,593.31,54.71,0000 0000 0000 0000 000000
2016-05-28 12:40:36,0.00,0.48,0.00,25.02,28.80,31.61,14.35,44.16,1018.55,2031.06,3348.00,2997.56,3400.91,599.94,593.02,54.76,0000 0000 0000 0000 000000
2016-05-28 12:45:37,0.00,0.48,0.00,25.00,28.80,31.62,14.33,44.10,1018.46,2031.05,3348.00,2997.48,3400.86,599.65,592.72,54.81,0000 0000 0000 0000 000000
2016-05-28 12:50:38,0.01,0.48,0.00,24.96,28.80,31.61,14.33,43.73,1018.27,2031.06,3348.00,2997.41,3400.76,599.99,593.03,54.86,0000 0000 0000 0000 000000
2016-05-28 12:55:39,0.00,0.48,0.00,24.97,28.80,31.61,14.35,43.92,1018.12,2031.11,3348.00,2997.43,3400.75,600.21,593.23,54.91,0000 0000 0000 0000 000000